Regional Weather Roundup
Issued by NWS

Home | Current Version | Previous Version | Graphics & Text | Print | Product List | Glossary On
Versions: 1 2 3 4 5 6 7 8 9 10 11 12 13 14 15 16 17 18 19 20 21 22 23 24 25 26 27 28 29 30 31 32 33 34 35 36 37 38 39 40 41 42 43 44 45 46 47 48 49 50
000
ASUS43 KLSX 031907
RWRMO

WEATHER SUMMARY FOR MISSOURI
NATIONAL WEATHER SERVICE SPRINGFIELD MO
200 PM CDT SUN MAY 03 2015

NOTE: "FAIR" INDICATES FEW OR NO CLOUDS BELOW 12,000 FEET WITH NO
       SIGNIFICANT WEATHER AND/OR OBSTRUCTIONS TO VISIBILITY.
       CURRENT SKY AND/OR WEATHER CONDITIONS ARE NOT AVAILABLE FOR
       CHILLICOTHE AND FARMINGTON.

MOZ001>031-035>038-043-044-053-054-032000-
...NORTHERN AND WESTERN MISSOURI...

CITY           SKY/WX    TMP DP  RH WIND       PRES   REMARKS
KANSAS CTY INT MOSUNNY   80  57  45 SW22      29.83F
KANSAS C DTWN  MOSUNNY   83  57  41 S16G29    29.83F
LEE`S SUMMIT   PTSUNNY   77  57  50 S14G23    29.86S
ST JOSEPH      SUNNY     83  58  42 S20G28    29.80F
CHILLICOTHE      N/A     81  60  48 S14G21    29.85F
KIRKSVILLE     MOSUNNY   81  59  47 SW16G26   29.88F

$$
MOZ066>068-077>081-088>096-101>105-032000-
...SOUTHWEST MISSOURI...

CITY           SKY/WX    TMP DP  RH WIND       PRES   REMARKS
SPRINGFIELD    SUNNY     79  55  43 S21G26    29.98F
JOPLIN         MOSUNNY   80  56  43 S20       29.96S

$$
MOZ032>034-039>042-045>050-055>058-069>072-032000-
...CENTRAL MISSOURI...

CITY           SKY/WX    TMP DP  RH WIND       PRES   REMARKS
COLUMBIA       PTSUNNY   81  57  43 S16       29.94F
JEFFERSON CITY PTSUNNY   81  54  39 SW12G22   29.93F
ROLLA          MOSUNNY   79  54  41 S13G26    29.96F
SEDALIA        PTSUNNY   81  56  42 S20G25    29.92F
WHITEMAN AFB   PTSUNNY   80  58  47 S21G30    29.88F
WARRENSBURG    PTSUNNY   79  54  41 S16G22    29.87F
OSAGE BEACH    SUNNY     82  54  36 SW17G24   29.95F

$$
MOZ051-052-059>065-032000-
...EAST CENTRAL MISSOURI...

CITY           SKY/WX    TMP DP  RH WIND       PRES   REMARKS
ST LOUIS INTL  PTSUNNY   83  51  33 S9G20     29.97F
SPIRIT OF STL  MOSUNNY   82  50  32 SW13      29.95F
ST CHARLES     MOSUNNY   82  53  36 S20       29.95F

$$
MOZ072>076-082>087-097>100-106>115-032000-
...SOUTH CENTRAL AND SOUTHEAST MISSOURI...

CITY           SKY/WX    TMP DP  RH WIND       PRES   REMARKS
CAPE GIRARDEAU MOSUNNY   79  45  29 SW13G22   30.05F
FARMINGTON     SUNNY     79  48  34 S12G22    30.06F
POPLAR BLUFF   PTSUNNY   79  48  33 S12G22    30.04F
WEST PLAINS    MOSUNNY   77  52  41 SW10      30.04F

$$


USA.gov is the U.S. government's official web portal to all federal, state and local government web resources and services.